Regional Weather Roundup
Issued by NWS

Home | Current Version | Previous Version | Text Only | Print | Product List | Glossary Off
Versions: 1 2 3 4 5 6 7 8 9 10 11 12 13 14 15 16 17 18 19 20 21 22 23 24 25 26 27 28 29 30 31 32 33 34 35 36 37 38 39 40 41 42 43 44 45 46 47 48 49 50

000
ASUS43 KMPX 261301
RWRMN
WEATHER ROUNDUP FOR MINNESOTA
NATIONAL WEATHER SERVICE TWIN CITIES/CHANHASSEN MN
800 AM CDT TUE SEP 26 2017


NOTE: "FAIR" INDICATES FEW OR NO CLOUDS BELOW 12,000 FEET WITH NO
SIGNIFICANT WEATHER AND/OR OBSTRUCTIONS TO VISIBILITY. N/A MEANS
CURRENT SKY AND/OR WEATHER CONDITIONS ARE NOT AVAILABLE.

MNZ060>063-068>070-261400-
   Twin Cities Metro

CITY           SKY/WX    TMP DP  RH WIND       PRES   REMARKS
TWIN CITIES    CLOUDY    58  58 100 NW5       29.93R
ST PAUL        CLOUDY    58  57  97 NW8       29.93R
CRYSTAL        LGT RAIN  57  54  89 W6        29.91S
BLAINE         CLOUDY    57  57 100 W3        29.92R
LAKEVILLE      DRIZZLE   55  55 100 NW6       29.94R
EDEN PRAIRIE   CLOUDY    58  56  93 W5        29.93R
SOUTH ST PAUL  CLOUDY    58  57  96 NW5       29.92S
LAKE ELMO      DRIZZLE   57  55  94 W5        29.93S
$$
MNZ001>005-007-008-013>017-022>024-027-028-261400-
   Northwest Minnesota

CITY           SKY/WX    TMP DP  RH WIND       PRES   REMARKS
BEMIDJI        LGT RAIN  48  48  98 N5        30.00S
HALLOCK        DRIZZLE   50  48  93 N7        30.07S
ROSEAU         LGT RAIN  48  45  87 N8        30.05F
WARROAD        DRIZZLE   52  46  82 NE12      30.05F
THIEF RVR FALL LGT RAIN  48  48 100 N6        30.06R
CROOKSTON      LGT RAIN  48  48 100 N8        30.06S
FOSSTON        DRIZZLE   46  46 100 N7        30.02S
DETROIT LAKES  DRIZZLE   50  48  93 NW7       30.02S
MOORHEAD       DRIZZLE   48  48 100 N8        30.04F
PARK RAPIDS    LGT RAIN  51  49  92 N7        29.99R FOG
MAHNOMEN       DRIZZLE   49  48  97 N7        30.01F
$$
MNZ006-009>011-018-025>026-261400-
   North Central Minnesota

CITY           SKY/WX    TMP DP  RH WIND       PRES   REMARKS
BAUDETTE       LGT RAIN  49  48  97 N8        30.04F
FLAG ISLAND    CLOUDY    52  46  82 NE8       30.05S
INTL FALLS     LGT RAIN  50  46  86 NE7       30.02S
WASKISH        DRIZZLE   48  48 100 N9        30.00F
BIG FORK       RAIN      50  48  93 N5        29.99R
LONGVILLE      DRIZZLE   52  50  93 N3        29.96S
GRAND RAPIDS   LGT RAIN  51  50  96 N6        29.98S FOG
CRANE LAKE     RAIN      48  46  93 N5        30.02S
ORR            LGT RAIN  48  46  93 CALM      29.97R
WALKER         DRIZZLE   49  49  97 N5        29.98F
$$
MNZ012-019>021-037-261400-
   Northeast Minnesota

CITY           SKY/WX    TMP DP  RH WIND       PRES   REMARKS
DULUTH         LGT RAIN  53  53 100 NE8       29.93S FOG
ELY            RAIN      48  48 100 N6        29.97S
HIBBING        RAIN      50  50 100 NE6       29.96F FOG
EVELETH        RAIN      53  51  94 NE3       29.98S
DULUTH HARBOR  LGT RAIN  57  55  94 NE17      29.93S
GRAND MARAIS     N/A     53  52  96 CALM      29.94S
$$
MNZ029>031-032-039>041-046>048-054>057-064-261400-
   West Central Minnesota

CITY           SKY/WX    TMP DP  RH WIND       PRES   REMARKS
FERGUS FALLS   CLOUDY    52  52 100 N7        30.02S
WHEATON        DRIZZLE   50  48  93 W9        30.05R
ALEXANDRIA     CLOUDY    52  51  97 NW8       30.01R
ELBOW LAKE     RAIN      51  51 100 NW8       30.02R
WADENA         DRIZZLE   50  50 100 NW5       29.99R
GLENWOOD       DRIZZLE   52  52 100 NW10      29.99S
APPLETON       CLOUDY    54  50  87 NW3       30.01R
BENSON         DRIZZLE   54  52  94 N7        30.02R
ORTONVILLE     DRIZZLE   50  48  93 NW12      30.04R
MADISON        CLOUDY    54  54 100 NW9       30.03R FOG
WILLMAR        DRIZZLE   54  54 100 NW7       30.01R
$$
MNZ033>034-036-042>043-049>051-058-059-261400-
   Central Minnesota

CITY           SKY/WX    TMP DP  RH WIND       PRES   REMARKS
ST CLOUD       LGT RAIN  54  54 100 NW7       29.95R
SAUK CENTRE    DRIZZLE   52  51  97 NW8       29.99R
PAYNESVILLE    DRIZZLE   53  53 100 NW8       29.97S
AITKIN         DRIZZLE   52  50  93 N7        29.93R
PINE RIVER     DRIZZLE   50  48  93 N6        29.99S
BRAINERD       LGT RAIN  53  52  96 N7        29.95S
STAPLES        DRIZZLE   50  50 100 NW6       29.98R
LITTLE FALLS   DRIZZLE   52  50  93 CALM      29.95S
LITCHFIELD     CLOUDY    55  55 100 NW9       29.98R FOG
BUFFALO        CLOUDY    55  53  92 NW6       29.95S
MAPLE LAKE     CLOUDY    56  55  97 NW3       29.95S
HUTCHINSON     CLOUDY    56  55  99 W7        29.97S
$$
MNZ037-044-045-052-053-261400-
   East Central Minnesota

CITY           SKY/WX    TMP DP  RH WIND       PRES   REMARKS
PRINCETON      CLOUDY    55  55 100 W5        29.93S
MORA           DRIZZLE   54  52  94 NW3       29.93S
RUSH CITY      RAIN      56  55  96 CALM      29.91S
MOOSE LAKE     RAIN      54  52  94 CALM      29.91S
HINCKLEY       RAIN      55  55 100 CALM      29.91F
CLOQUET        RAIN      54  52  94 N5        29.94R
MCGREGOR       CLOUDY    54  52  94 N7        29.93F
$$
MNZ071>073-080-081-089-090-097-098-261400-
   Southwest Minnesota

CITY           SKY/WX    TMP DP  RH WIND       PRES   REMARKS
MONTEVIDEO     CLOUDY    52  52 100 N6        30.01R
GRANITE FALLS  CLOUDY    54  53  97 W7        30.02F
CANBY          CLOUDY    51  50  96 NW10      30.05R
MARSHALL       LGT RAIN  51  50  96 NW14      30.03R FOG
REDWOOD FALLS  CLOUDY    54  52  93 NW12      29.99R FOG
OLIVIA         CLOUDY    54  52  94 NW6       29.99R FOG
PIPESTONE      LGT RAIN  50  48  93 NW9       30.05R
WORTHINGTON    CLOUDY    51  50  96 W12       30.04  FOG
JACKSON        CLOUDY    52  52 100 NW9       30.01R FOG
TRACY          CLOUDY    52  52 100 NW10      30.02R
SLAYTON        CLOUDY    50  43  78 W10       30.03R HAZE
$$
MNZ065>067-074>077-082>085-091>093-261400-
   South Central Minnesota

CITY           SKY/WX    TMP DP  RH WIND       PRES   REMARKS
MANKATO        LGT RAIN  56  55  97 NW7       29.96R FOG
NEW ULM        CLOUDY    55  54  94 NW9       29.97R
ST JAMES       CLOUDY    54  54 100 W10       29.99R FOG
FAIRMONT       CLOUDY    55  54  96 NW9       29.98R
FARIBAULT      CLOUDY    57  55  94 W5        29.95R
OWATONNA       CLOUDY    57  55  94 W7        29.95R
WASECA         CLOUDY    55  55 100 NW7       29.97R FOG
ALBERT LEA     CLOUDY    61  59  94 NW7       29.96R FOG
$$
MNZ078>079-086>088-094>096-261400-
   Southeast Minnesota

CITY           SKY/WX    TMP DP  RH WIND       PRES   REMARKS
ROCHESTER      LGT RAIN  64  63  96 S6        29.94R FOG
RED WING       DRIZZLE   61  57  88 NW5       29.91R
STANTON        LGT RAIN  59  56  91 W7        29.93R
DODGE CENTER   RAIN      59  57  94 W9        29.94R
WINONA         LGT RAIN  66  64  94 CALM      29.92R
AUSTIN         RAIN      61  61 100 W9        29.95R
PRESTON        CLOUDY    63  62  96 SW7       29.95R FOG
$$
ABBREVIATIONS USED IN REMARKS
   TC - TEMPERATURES IN CELSIUS
  WCI - WIND CHILL INDEX
   HX - HEAT INDEX
  VSB - VISIBILITY
$$




USA.gov is the U.S. government's official web portal to all federal, state and local government web resources and services.